Weather History for KSTL - January, 2014

Change the Weather History Date:

Thursday, January 16, 2014

  Actual Average Record
Temperature  
Mean Temperature 36 °F 32 °F  
Max Temperature 47 °F 40 °F 71 °F (1990)
Min Temperature 25 °F 23 °F -14 °F (1977)
Degree Days  
Heating Degree Days 29 33  
Month to date heating degree days 583 536  
Since 1 July heating degree days 2423 2301  
Cooling Degree Days 0 0  
Month to date cooling degree days 0 0  
Year to date cooling degree days 0 0  
Moisture  
Dew Point 22 °F    
Average Humidity 60    
Maximum Humidity 78    
Minimum Humidity 42    
Precipitation  
Precipitation 0.03 in 0.07 in 1.06 in (1907)
Month to date precipitation 1.52 1.28  
Year to date precipitation 1.52 1.28  
Snow  
Snow 0.30 in 0.20 in 10.90 in (1978)
Month to date snowfall 15.2 2.9  
Since 1 July snowfall 20.8 8.0  
Snow Depth T in    
Sea Level Pressure  
Sea Level Pressure 29.82 in    
Wind  
Wind Speed 14 mph (SW)    
Max Wind Speed 29 mph    
Max Gust Speed 40 mph    
Visibility 8 miles    
Events Snow    
T = Trace of Precipitation, MM = Missing Value Source: NWS Daily Summary

Daily Weather History Graph

Daily Weather History Graph

Search for Another Location

Airport or City:

Trip Planner

Search our weather history database for the weather conditions in past years. The results will help you decide how hot, cold, wet, or windy it might be!

Date:

Astronomy

Jan. 16, 2014 Rise Set
Actual Time 7:17 AM CST 5:05 PM CST
Civil Twilight 6:48 AM CST 5:34 PM CST
Nautical Twilight 6:16 AM CST 6:06 PM CST
Astronomical Twilight 5:44 AM CST 6:38 PM CST
Moon 5:55 PM CST (1/16) 7:12 AM CST (1/16)
Length of Visible Light 10h 45m
Length of Day
9h 47m
Full, 100% of the Moon is Illuminated
Jan 16
Full
Jan 23
Last Quarter
Jan 30
New
Feb 6
First Quarter
Feb 14
Full

Hourly Weather History & Observations

Time (CST) Temp. Windchill Dew Point Humidity Pressure Visibility Wind Dir Wind Speed Gust Speed Precip Events Conditions
12:51 AM 28.0 °F 21.7 °F 10.9 °F 49% 29.96 in 10.0 mi South 5.8 mph - N/A   Overcast
1:51 AM 28.9 °F 19.8 °F 10.0 °F 45% 29.95 in 10.0 mi South 10.4 mph - N/A   Overcast
2:51 AM 30.0 °F 23.2 °F 10.9 °F 45% 29.91 in 9.0 mi South 6.9 mph - 0.00 in Snow Light Snow
3:07 AM 30.2 °F 19.8 °F 14.0 °F 51% 29.87 in 2.5 mi South 13.8 mph - 0.00 in Snow Light Snow
3:13 AM 28.4 °F 17.5 °F 17.6 °F 64% 29.87 in 1.8 mi South 13.8 mph 24.2 mph 0.00 in Snow Light Snow
3:19 AM 28.4 °F 19.1 °F 19.4 °F 69% 29.86 in 2.5 mi South 10.4 mph 24.2 mph 0.00 in Snow Light Snow
3:41 AM 28.4 °F 19.7 °F 21.2 °F 74% 29.85 in 1.2 mi SSW 9.2 mph - 0.00 in Snow Light Snow
3:51 AM 28.0 °F 19.3 °F 21.9 °F 78% 29.87 in 1.2 mi South 9.2 mph - 0.01 in Snow Light Snow
4:04 AM 28.4 °F 19.7 °F 23.0 °F 80% 29.83 in 2.0 mi South 9.2 mph - 0.00 in Snow Light Snow
4:33 AM 28.4 °F 21.2 °F 23.0 °F 80% 29.81 in 2.0 mi South 6.9 mph - 0.01 in Snow Light Snow
4:40 AM 28.4 °F 19.7 °F 23.0 °F 80% 29.81 in 4.0 mi South 9.2 mph - 0.01 in Snow Light Snow
4:51 AM 28.9 °F 21.1 °F 23.0 °F 78% 29.84 in 5.0 mi South 8.1 mph - 0.01 in Snow Light Snow
5:51 AM 30.9 °F 21.2 °F 21.0 °F 67% 29.80 in 9.0 mi South 12.7 mph - 0.01 in Snow Light Snow
6:51 AM 33.1 °F 24.9 °F 19.0 °F 56% 29.78 in 10.0 mi South 10.4 mph - 0.00 in   Mostly Cloudy
7:51 AM 35.1 °F 25.9 °F 19.0 °F 52% 29.76 in 10.0 mi SSW 13.8 mph - N/A   Mostly Cloudy
8:51 AM 36.0 °F 27.1 °F 19.0 °F 50% 29.79 in 10.0 mi WSW 13.8 mph - N/A   Mostly Cloudy
9:51 AM 39.0 °F 31.4 °F 21.0 °F 49% 29.78 in 10.0 mi WSW 12.7 mph - N/A   Mostly Cloudy
11:51 AM 44.1 °F 37.7 °F 26.1 °F 49% 29.75 in 10.0 mi West 12.7 mph - N/A   Mostly Cloudy
12:51 PM 46.0 °F 38.5 °F 27.0 °F 47% 29.73 in 10.0 mi West 19.6 mph 34.5 mph N/A   Overcast
1:51 PM 46.0 °F 37.8 °F 25.0 °F 44% 29.74 in 10.0 mi West 23.0 mph 28.8 mph N/A   Mostly Cloudy
2:51 PM 46.0 °F 38.8 °F 25.0 °F 44% 29.75 in 10.0 mi West 18.4 mph - N/A   Mostly Cloudy
3:48 PM 41.0 °F 35.2 °F 30.2 °F 65% 29.76 in 10.0 mi WNW 9.2 mph - 0.00 in   Mostly Cloudy
3:51 PM 41.0 °F 34.7 °F 30.0 °F 65% 29.79 in 10.0 mi WNW 10.4 mph - 0.00 in   Mostly Cloudy
4:51 PM 41.0 °F 32.5 °F 30.0 °F 65% 29.81 in 10.0 mi WNW 17.3 mph 32.2 mph N/A   Mostly Cloudy
5:51 PM 37.0 °F 28.9 °F 28.9 °F 73% 29.82 in 10.0 mi WSW 12.7 mph - 0.00 in   Mostly Cloudy
6:51 PM 37.0 °F 32.4 °F 28.0 °F 70% 29.82 in 10.0 mi WSW 5.8 mph - N/A   Mostly Cloudy
7:51 PM 37.9 °F 28.5 °F 27.0 °F 65% 29.81 in 7.0 mi West 17.3 mph 36.8 mph 0.00 in Snow Light Snow
8:04 PM 37.4 °F 29.3 °F 26.6 °F 65% 29.79 in 9.0 mi West 12.7 mph - 0.00 in   Scattered Clouds
8:51 PM 37.0 °F 29.8 °F 27.0 °F 67% 29.81 in 10.0 mi WSW 10.4 mph - 0.00 in   Scattered Clouds
9:51 PM 34.0 °F 22.7 °F 21.0 °F 59% 29.84 in 10.0 mi WNW 19.6 mph 32.2 mph 0.00 in   Scattered Clouds
10:51 PM 30.9 °F 17.2 °F 18.0 °F 59% 29.86 in 10.0 mi WNW 25.3 mph 34.5 mph N/A   Mostly Cloudy
11:51 PM 25.0 °F 10.6 °F 10.9 °F 55% 29.91 in 10.0 mi NW 20.7 mph 29.9 mph N/A   Mostly Cloudy